IRIDIUM 106 1 41917U 17003A 26195.16567418 .00000040 00000+0 73088-5 0 9998 2 41917 86.3942 77.2759 0002278 94.0812 266.0645 14.34217052497071 IRIDIUM 103 1 41918U 17003B 26195.15298847 .00000105 00000+0 30565-4 0 9999 2 41918 86.3939 77.1806 0001968 83.2704 276.8716 14.34218145497099 IRIDIUM 109 1 41919U 17003C 26195.15933086 -.00000026 00000+0 -16239-4 0 9997 2 41919 86.3943 77.2379 0002061 83.9054 276.2376 14.34216846497060 IRIDIUM 102 1 41920U 17003D 26195.12761943 .00000160 00000+0 50000-4 0 9998 2 41920 86.3942 77.1742 0002262 84.4874 275.6579 14.34218337497147 IRIDIUM 105 1 41921U 17003E 26195.08621382 .00000159 00000+0 49782-4 0 9999 2 41921 86.3941 45.6193 0002153 79.9634 280.1805 14.34217830498993 IRIDIUM 104 1 41922U 17003F 26195.14030324 .00000144 00000+0 44489-4 0 9990 2 41922 86.3943 77.2119 0002015 78.6896 281.4526 14.34218064497137 IRIDIUM 114 1 41923U 17003G 26195.14664653 -.00000022 00000+0 -14816-4 0 9997 2 41923 86.3941 77.1919 0001929 81.5691 278.5724 14.34217003497119 IRIDIUM 108 1 41924U 17003H 26195.10516749 .00000121 00000+0 36282-4 0 9995 2 41924 86.3935 45.4998 0002227 85.7284 274.4166 14.34217856498969 IRIDIUM 112 1 41925U 17003J 26195.13395961 .00000131 00000+0 39877-4 0 9994 2 41925 86.3939 77.0382 0002176 83.4839 276.6604 14.34217023497131 IRIDIUM 111 1 41926U 17003K 26195.19104473 .00000119 00000+0 35482-4 0 9991 2 41926 86.3941 77.0858 0002149 85.2695 274.8747 14.34218000497126 IRIDIUM 113 1 42803U 17039A 26194.82216572 .00000009 00000+0 -38789-5 0 9991 2 42803 86.3988 311.0464 0002014 90.6247 269.5180 14.34217159475009 IRIDIUM 123 1 42804U 17039B 26194.93341248 -.00000006 00000+0 -93188-5 0 9995 2 42804 86.3986 342.4561 0002053 96.2898 263.8531 14.34217116473784 IRIDIUM 120 1 42805U 17039C 26194.74605641 -.00000027 00000+0 -16805-4 0 9998 2 42805 86.3975 310.8574 0002217 99.1623 260.9824 14.34217725474988 IRIDIUM 115 1 42806U 17039D 26195.01894913 .00000177 00000+0 46723-4 0 9998 2 42806 86.4517 310.8755 0002230 99.7329 260.4124 14.43277227478139 IRIDIUM 118 1 42807U 17039E 26194.89535831 .00000016 00000+0 -15143-5 0 9991 2 42807 86.3984 342.4700 0002050 90.5553 269.5878 14.34217372473772 IRIDIUM 117 1 42808U 17039F 26194.91438469 .00000071 00000+0 18343-4 0 9998 2 42808 86.3989 342.4192 0002180 94.5533 265.5912 14.34217264473808 IRIDIUM 126 1 42809U 17039G 26194.93975580 .00000073 00000+0 18886-4 0 9995 2 42809 86.3990 342.4604 0002054 90.7005 269.4426 14.34217990473787 IRIDIUM 124 1 42810U 17039H 26194.74473652 .00000178 00000+0 46928-4 0 9993 2 42810 86.4483 279.2551 0002292 95.7669 264.3793 14.43285651478943 IRIDIUM 128 1 42811U 17039J 26195.00026471 .00000016 00000+0 -13917-5 0 9992 2 42811 86.3962 13.9365 0002170 94.6001 265.5443 14.34216527473827 IRIDIUM 121 1 42812U 17039K 26194.88901573 -.00000010 00000+0 -10735-4 0 9992 2 42812 86.3987 342.5101 0002150 93.4922 266.6520 14.34217245473658 IRIDIUM 133 1 42955U 17061A 26194.96220777 .00000042 00000+0 78324-5 0 9996 2 42955 86.3966 14.0708 0002202 91.0309 269.1140 14.34217011458614 IRIDIUM 100 1 42956U 17061B 26195.02563525 .00000031 00000+0 40123-5 0 9990 2 42956 86.3964 13.9623 0002221 89.9464 270.1986 14.34217066458627 IRIDIUM 122 1 42957U 17061C 26194.99391767 .00000025 00000+0 18621-5 0 9994 2 42957 86.3966 13.9759 0002135 91.2415 268.9026 14.34216972458621 IRIDIUM 129 1 42958U 17061D 26195.01928921 .00000026 00000+0 22739-5 0 9993 2 42958 86.3965 14.0326 0002160 83.6894 276.4548 14.34216878458647 IRIDIUM 119 1 42959U 17061E 26195.05734763 .00000032 00000+0 45333-5 0 9999 2 42959 86.3965 14.0124 0002106 89.8532 270.2905 14.34216597458660 IRIDIUM 107 1 42960U 17061F 26195.00660458 .00000014 00000+0 -20756-5 0 9998 2 42960 86.3962 14.0554 0001978 95.0686 265.0735 14.34216913458666 IRIDIUM 132 1 42961U 17061G 26195.01294845 .00000027 00000+0 26100-5 0 9995 2 42961 86.3965 14.0319 0002182 90.2740 269.8706 14.34216474458667 IRIDIUM 136 1 42962U 17061H 26195.04466282 .00000032 00000+0 43770-5 0 9993 2 42962 86.3966 14.0253 0002252 90.1843 269.9611 14.34217075458683 IRIDIUM 139 1 42963U 17061J 26194.98123765 .00000031 00000+0 40073-5 0 9994 2 42963 86.3967 14.1142 0002240 91.8241 268.3211 14.34216980458683 IRIDIUM 125 1 42964U 17061K 26195.03832060 .00000027 00000+0 27043-5 0 9994 2 42964 86.3969 14.1519 0001664 91.3740 268.7647 14.34217299458706 IRIDIUM 135 1 43070U 17083A 26194.87290738 .00000130 00000+0 39252-4 0 9997 2 43070 86.3984 310.8602 0002178 93.8926 266.2519 14.34218334447974 IRIDIUM 138 1 43071U 17083B 26194.82850860 .00000135 00000+0 41149-4 0 9994 2 43071 86.3999 310.5783 0002060 91.9349 268.2083 14.34218321447958 IRIDIUM 116 1 43072U 17083C 26194.79679480 .00000116 00000+0 34346-4 0 9998 2 43072 86.3984 310.8778 0002427 99.0489 261.0982 14.34217419447980 IRIDIUM 130 1 43073U 17083D 26194.83485433 .00000131 00000+0 39703-4 0 9996 2 43073 86.3992 311.1397 0002236 100.8684 259.2764 14.34217605447936 IRIDIUM 151 1 43074U 17083E 26194.80948198 .00000136 00000+0 41445-4 0 9997 2 43074 86.3986 310.9307 0002239 95.2353 264.9098 14.34217870447950 IRIDIUM 134 1 43075U 17083F 26194.84753691 .00000094 00000+0 26491-4 0 9991 2 43075 86.3987 310.9232 0002199 95.3757 264.7689 14.34218094447923 IRIDIUM 137 1 43076U 17083G 26194.86022332 .00000123 00000+0 36949-4 0 9997 2 43076 86.3989 311.0114 0002664 93.4500 266.7000 14.34218270447991 IRIDIUM 141 1 43077U 17083H 26194.85387904 .00000083 00000+0 22479-4 0 9994 2 43077 86.3984 310.8430 0002168 92.9990 267.1453 14.34217594447996 IRIDIUM 153 1 43078U 17083J 26195.22466910 .00000069 00000+0 17397-4 0 9999 2 43078 86.3960 279.1676 0002114 94.3286 265.8152 14.34217815449152 IRIDIUM 131 1 43079U 17083K 26194.84119498 .00000068 00000+0 17373-4 0 9996 2 43079 86.3991 311.0359 0002252 93.1963 266.9490 14.34217941447923 IRIDIUM 144 1 43249U 18030A 26195.16124361 .00000058 00000+0 13813-4 0 9993 2 43249 86.3958 279.1226 0002373 96.8234 263.3232 14.34217807434008 IRIDIUM 149 1 43250U 18030B 26195.16758638 .00000102 00000+0 29469-4 0 9999 2 43250 86.3957 279.0866 0002262 93.1611 266.9843 14.34217940434021 IRIDIUM 157 1 43251U 18030C 26195.18661654 .00000136 00000+0 41610-4 0 9992 2 43251 86.3960 279.1326 0002265 94.0844 266.0611 14.34217764434005 IRIDIUM 140 1 43252U 18030D 26195.13587557 .00000156 00000+0 48548-4 0 9996 2 43252 86.3959 279.1663 0002230 95.1185 265.0265 14.34217440434050 IRIDIUM 145 1 43253U 18030E 26195.19295567 .00000121 00000+0 36196-4 0 9998 2 43253 86.3958 279.1141 0002492 99.2157 260.9321 14.34217324433995 IRIDIUM 146 1 43254U 18030F 26195.17392836 .00000076 00000+0 20248-4 0 9994 2 43254 86.3959 279.1347 0002372 96.6199 263.5267 14.34217590434005 IRIDIUM 148 1 43255U 18030G 26195.21198748 .00000143 00000+0 43830-4 0 9993 2 43255 86.3960 279.1622 0002344 93.5628 266.5836 14.34217786434042 IRIDIUM 142 1 43256U 18030H 26195.18027163 .00000097 00000+0 27655-4 0 9997 2 43256 86.3955 279.0636 0002417 97.2174 262.9297 14.34218017434004 IRIDIUM 150 1 43257U 18030J 26195.14855587 -.00000192 00000+0 -75557-4 0 9995 2 43257 86.3955 279.1940 0002116 93.4439 266.6999 14.34216224434022 IRIDIUM 143 1 43258U 18030K 26195.19930020 .00000061 00000+0 14807-4 0 9991 2 43258 86.3962 279.2662 0002323 95.6302 264.5158 14.34217342433964 IRIDIUM 161 1 43478U 18047C 26195.13868081 .00000182 00000+0 48189-4 0 9998 2 43478 86.4464 77.2004 0002277 81.3031 278.8427 14.43275486429023 IRIDIUM 152 1 43479U 18047D 26195.17201816 .00000150 00000+0 46485-4 0 9992 2 43479 86.3938 77.0475 0002122 83.4945 276.6492 14.34219950426350 IRIDIUM 147 1 43480U 18047E 26195.17835880 .00000114 00000+0 33494-4 0 9994 2 43480 86.3938 77.0505 0002259 88.7064 271.4390 14.34217432426350 IRIDIUM 110 1 43481U 18047F 26195.18470207 .00000162 00000+0 50853-4 0 9995 2 43481 86.3942 77.1406 0002140 77.2706 282.8729 14.34218401426340 IRIDIUM 162 1 43482U 18047G 26195.13238792 .00000222 00000+0 59930-4 0 9994 2 43482 86.4459 77.0933 0002201 86.1847 273.9606 14.43278245429016 IRIDIUM 160 1 43569U 18061A 26195.13053672 .00000141 00000+0 43297-4 0 9997 2 43569 86.3940 45.5272 0002241 86.7208 273.4244 14.34216847417237 IRIDIUM 166 1 43570U 18061B 26195.08614022 .00000033 00000+0 47647-5 0 9999 2 43570 86.3939 45.4960 0002298 90.8457 269.3002 14.34217539417251 IRIDIUM 158 1 43571U 18061C 26195.12419528 .00000068 00000+0 17097-4 0 9992 2 43571 86.3939 45.4899 0002072 86.8809 273.2624 14.34217626417227 IRIDIUM 165 1 43572U 18061D 26195.07979721 .00000015 00000+0 -16679-5 0 9992 2 43572 86.3937 45.5549 0002163 91.3502 268.7942 14.34216972417248 IRIDIUM 155 1 43573U 18061E 26195.11150972 .00000094 00000+0 26361-4 0 9991 2 43573 86.3938 45.4100 0002110 89.3134 270.8304 14.34217591417213 IRIDIUM 154 1 43574U 18061F 26195.09248178 .00000088 00000+0 24356-4 0 9990 2 43574 86.3940 45.5529 0002286 90.6108 269.5349 14.34217563417261 IRIDIUM 163 1 43575U 18061G 26195.07345433 .00000061 00000+0 14867-4 0 9998 2 43575 86.3936 45.4752 0002118 85.5347 274.6090 14.34217388417238 IRIDIUM 156 1 43576U 18061H 26195.11785285 .00000054 00000+0 12143-4 0 9994 2 43576 86.3936 45.4637 0002083 91.9176 268.2258 14.34217529417235 IRIDIUM 164 1 43577U 18061J 26195.09882669 .00000155 00000+0 48373-4 0 9992 2 43577 86.3938 45.5128 0002323 89.3076 270.8386 14.34218064417271 IRIDIUM 159 1 43578U 18061K 26195.06711169 .00000058 00000+0 13715-4 0 9990 2 43578 86.3935 45.4623 0002141 85.0592 275.0848 14.34217420417233 IRIDIUM 180 1 43922U 19002A 26194.92707182 .00000109 00000+0 31854-4 0 9994 2 43922 86.3990 342.4190 0002193 90.8984 269.2463 14.34218163392822 IRIDIUM 176 1 43923U 19002B 26194.93837301 .00000404 00000+0 60192-4 0 9998 2 43923 86.6110 342.3539 0002338 89.9040 270.2445 14.72248159403183 IRIDIUM 168 1 43924U 19002C 26194.92072738 -.00000068 00000+0 -31319-4 0 9990 2 43924 86.3989 342.4996 0002111 91.9223 268.2215 14.34216658392803 IRIDIUM 173 1 43925U 19002D 26194.90804341 -.00000078 00000+0 -34846-4 0 9991 2 43925 86.3988 342.3932 0002021 91.8103 268.3324 14.34216653392782 IRIDIUM 169 1 43926U 19002E 26195.03117659 .00000030 00000+0 32833-5 0 9997 2 43926 86.4220 13.9667 0001848 102.1820 257.9585 14.38613098394083 IRIDIUM 172 1 43927U 19002F 26194.97146992 .00000031 00000+0 41581-5 0 9993 2 43927 86.3986 342.3740 0002170 90.1759 269.9685 14.34217540392809 IRIDIUM 175 1 43928U 19002G 26195.16988566 .00000180 00000+0 47254-4 0 9994 2 43928 86.4512 279.2428 0005275 117.2257 242.9482 14.43626906402875 IRIDIUM 171 1 43929U 19002H 26194.95244176 .00000032 00000+0 44636-5 0 9991 2 43929 86.3997 342.6911 0002213 94.8618 265.2830 14.34217535392792 IRIDIUM 170 1 43930U 19002J 26194.94454345 .00000404 00000+0 60217-4 0 9998 2 43930 86.6109 342.3535 0002277 86.3158 273.8320 14.72248728403192 IRIDIUM 167 1 43931U 19002K 26194.94609896 .00000042 00000+0 78010-5 0 9991 2 43931 86.3990 342.4073 0002267 98.8571 261.2881 14.34217700392792 IRIDIUM 181 1 56726U 23068S 26195.07558473 .00000185 00000+0 48986-4 0 9999 2 56726 86.4476 45.5463 0002412 83.7838 276.3637 14.43311961166310 IRIDIUM 177 1 56727U 23068T 26194.82480595 .00000563 00000+0 70959-4 0 9996 2 56727 86.1985 316.1443 0002140 94.4975 265.6490 14.80029271170300 IRIDIUM 174 1 56728U 23068U 26194.93210762 .00000417 00000+0 62279-4 0 9990 2 56728 86.6118 342.5088 0002006 86.6388 273.5059 14.72257302169951 IRIDIUM 178 1 56729U 23068V 26195.01663304 .00000183 00000+0 20788-4 0 9994 2 56729 86.6535 14.1459 0002317 90.6138 269.5349 14.80025847170339 IRIDIUM 179 1 56730U 23068W 26195.01128279 .00000238 00000+0 27934-4 0 9994 2 56730 86.6766 23.2070 0002309 93.6642 266.4844 14.80033413170335